User: anonymous   Login
Location: Ellerstadt
(49.4644°N, 8.2615°E)
Time: 01:36:41
(UTC+00:00)
Language:

Cosmos 1727 Rocket - Orbit

View from above orbital plane
View from above orbital plane
View from above satellite
View from above satellite

Ground track
Ground track

The orbit data is extracted from the following two-line orbital elements,

1 16511U 86008B   21125.46247066  .00000015  00000-0 -37868-6 0  9997
2 16511  82.9444 248.0856 0022809 280.9056 147.7377 13.75795523771032
Epoch (UTC): 05 May 2021 11:05:57
Eccentricity: 0.0022809
inclination: 82.9444°
perigee height: 962 km
apogee height: 995 km
right ascension of ascending node: 248.0856°
argument of perigee: 280.9056°
revolutions per day: 13.75795523
mean anomaly at epoch: 147.7377°
orbit number at epoch: 77103

The dashed part of the orbit path shows where the satellite is in the earth's shadow,  

DLR